User: anonymous   Login
Location: C.E.K. Mees Observatory
(42.7003°N, 77.4088°W)
Time: 00:53:14
(UTC-05:00)
Language:

OTV 5 (USA 277) - Orbit

View from above orbital plane
View from above orbital plane
View from above satellite
View from above satellite

Ground track
Ground track

The orbit data is extracted from the following two-line orbital elements,

1 42932U 17052A   18351.49295950 0.00000300  00000-0  19570-5 0    09
2 42932  54.5128  15.4547 0006000 168.0310 191.9689 15.75205304    03
Epoch (UTC): 17 December 2018 11:49:51
Eccentricity: 0.0006000
inclination: 54.5128°
perigee height: 340 km
apogee height: 348 km
right ascension of ascending node: 15.4547°
argument of perigee: 168.0310°
revolutions per day: 15.75205304
mean anomaly at epoch: 191.9689°
orbit number at epoch: 0

The dashed part of the orbit path shows where the satellite is in the earth's shadow,  

DLR